Regional Weather Roundup
Issued by NWS

Home | Current Version | Previous Version | Text Only | Print | Product List | Glossary On
Versions: 1 2 3 4 5 6 7 8 9 10 11 12 13 14 15 16 17 18 19 20 21 22 23 24 25 26 27 28 29 30 31 32 33 34 35 36 37 38 39 40 41 42 43 44 45 46 47 48 49 50
000
ASUS43 KDTX 280610
RWRMI
MICHIGAN HOURLY REGIONAL WEATHER ROUNDUP
NATIONAL WEATHER SERVICE DETROIT/PONTIAC MI
200 AM EDT THU MAY 28 2015

NOTE: "FAIR" INDICATES FEW OR NO CLOUDS BELOW 12,000 FEET WITH NO
SIGNIFICANT WEATHER AND/OR OBSTRUCTION TO VISIBILITY.

MIZ047>049-052>055-059>063-066>070-074>076-081>083-280700-
SOUTHEAST LOWER MICHIGAN

CITY           SKY/WX    TMP DP  RH WIND       PRES   REMARKS
ADRIAN         CLEAR     59  57  93 N3        30.14R
6HR MIN TEMP:  58; 6HR MAX TEMP:  72;

ANN ARBOR      CLEAR     55  53  93 CALM      30.13R
DETROIT CITY   CLEAR     65  56  72 NW3       30.12R
6HR MIN TEMP:  65; 6HR MAX TEMP:  74;

DETROIT        PTCLDY    64  56  75 W5        30.13R
6HR MIN TEMP:  64; 6HR MAX TEMP:  74;

FLINT          CLEAR     57  53  86 S3        30.13R
6HR MIN TEMP:  56; 6HR MAX TEMP:  73;


CITY           SKY/WX    TMP DP  RH WIND       PRES   REMARKS
JACKSON        CLEAR     57  54  89 CALM      30.15R
6HR MIN TEMP:  54; 6HR MAX TEMP:  69;

LANSING        CLEAR     57  54  89 W3        30.15R
6HR MIN TEMP:  57; 6HR MAX TEMP:  70;

LAPEER         NOT AVBL
MT. CLEMENS    CLEAR     61  56  84 NW3       30.10R
6HR MIN TEMP:  61; 6HR MAX TEMP:  73;

PONTIAC        CLEAR     61  56  83 NW6       30.12R
6HR MIN TEMP:  61; 6HR MAX TEMP:  71;

PORT HOPE        N/A     60  54  80 NW9       30.09R
6HR MIN TEMP:  58; 6HR MAX TEMP:  71;

TRI CITIES     CLOUDY    61  56  83 W5        30.13R
6HR MIN TEMP:  59; 6HR MAX TEMP:  73;

MIDLAND        NOT AVBL
$$
MIZ043>046-050>051-056>058-064>065-071>073-077>080-280700-
SOUTHWEST LOWER MICHIGAN

CITY           SKY/WX    TMP DP  RH WIND       PRES   REMARKS
BATTLE CREEK   CLEAR     56  53  90 W3        30.15R
6HR MIN TEMP:  56; 6HR MAX TEMP:  69;

BENTON HARBOR  CLEAR     52  52 100 CALM      30.15R FOG
6HR MIN TEMP:  50; 6HR MAX TEMP:  62;

HOLLAND        CLEAR     54  52  93 S3        30.14R
6HR MIN TEMP:  54; 6HR MAX TEMP:  61;

GRAND RAPIDS   CLEAR     56  55  97 SW5       30.14R
6HR MIN TEMP:  56; 6HR MAX TEMP:  68;

KALAMAZOO      CLEAR     56  54  93 CALM      30.15R
6HR MIN TEMP:  55; 6HR MAX TEMP:  70;

MUSKEGON       MOCLDY    54  52  93 S3        30.14R
6HR MIN TEMP:  51; 6HR MAX TEMP:  64;

$$
MIZ016>042-280700-
NORTHERN LOWER MICHIGAN

CITY           SKY/WX    TMP DP  RH WIND       PRES   REMARKS
ALPENA         CLEAR     53  50  89 CALM      30.09R
6HR MIN TEMP:  52; 6HR MAX TEMP:  64;

GAYLORD        PTCLDY    56  55  97 S5        30.09S
6HR MIN TEMP:  55; 6HR MAX TEMP:  63;

HOUGHTON LAKE  CLEAR     61  54  77 W6        30.12R
6HR MIN TEMP:  53; 6HR MAX TEMP:  67;

MANISTEE       MOCLDY    57  52  82 SE5       30.14R
PELLSTON       MOCLDY    51  50  96 CALM      30.07S
6HR MIN TEMP:  50; 6HR MAX TEMP:  61; 6HR PCP: TRACE;

TRAVERSE CITY  CLOUDY    60  56  86 VRB5      30.06S
6HR MIN TEMP:  59; 6HR MAX TEMP:  67; 6HR PCP:  0.07;

$$
MIZ007>008-015-280700-
EASTERN UPPER MICHIGAN

CITY           SKY/WX    TMP DP  RH WIND       PRES   REMARKS
KINROSS        PTCLDY    52  52 100 CALM      30.07R
6HR MIN TEMP:  52; 6HR MAX TEMP:  57;

S. S. MARIE    CLOUDY    52  50  93 CALM      30.07R
6HR MIN TEMP:  49; 6HR MAX TEMP:  54;

MUNISING         N/A     48  45  89 NE8       30.08R
6HR MIN TEMP:  48; 6HR MAX TEMP:  61;

$$
MIZ004>006-011>014-085-280700-
CENTRAL UPPER MICHIGAN

CITY           SKY/WX    TMP DP  RH WIND       PRES   REMARKS
ESCANABA       PTCLDY    52  48  87 CALM      30.05R
6HR MIN TEMP:  52; 6HR MAX TEMP:  64;

MENOMINEE      CLEAR     57  54  88 W3        30.05S
6HR MIN TEMP:  57; 6HR MAX TEMP:  64; 6HR PCP:  0.08;

$$
MIZ001>003-009>011-084-280700-
WESTERN UPPER MICHIGAN

CITY           SKY/WX    TMP DP  RH WIND       PRES   REMARKS
IRON MOUNTAIN  CLEAR     54  51  90 N3        30.06R
6HR MIN TEMP:  54; 6HR MAX TEMP:  75;

HOUGHTON       CLEAR     46  42  86 E5        30.09R
6HR MIN TEMP:  46; 6HR MAX TEMP:  67;

COPPER HARBOR    N/A     44  39  82 VRB5      30.12R
6HR MIN TEMP:  44; 6HR MAX TEMP:  56;

IRONWOOD       CLEAR     54  54 100 E7        30.03S
6HR MIN TEMP:  52; 6HR MAX TEMP:  64;

$$

ABBREVIATIONS USED IN REMARKS
   TC - TEMPERATURE IN CELSIUS
  WCI - WIND CHILL INDEX
   HX - HEAT INDEX
  VSB - VISIBILITY



USA.gov is the U.S. government's official web portal to all federal, state and local government web resources and services.